Location: Cotdoussan
(43.0366°N, 0.0068°E)
Time: 03:08:16
(UTC+00:00)

ARIANE 6 FM1 Upper Stage - Pass Details

Date: 28 January 2026
Orbit: 522 x 609 km, 62.0° (Epoch: 10 February)

Event Time Altitude Azimuth Distance (km) Brightness Sun altitude
Rises 19:11:30 0° 279° (W) 2,692 7.5 -22.8°
Reaches altitude 10° 19:15:35 10° 320° (NW) 1,784 5.7 -23.5°
Maximum altitude 19:16:27 11° 332° (NNW) 1,746 5.4 -23.7°
Drops below altitude 10° 19:17:19 10° 345° (NNW) 1,779 5.3 -23.8°
Enters shadow 19:18:01 - 355° (N) 1,858 5.3 -23.9°
